千帆星座-17 (QIANFAN-17)

导读

QIANFAN-17 是中国“北斗”卫星导航系统的重要组成部分,主要用于提供高精度定位、导航和授时服务。该卫星采用先进的技术,具备更强的信号稳定性和抗干扰能力,提升了系统的整体性能和覆盖范围。QIANFAN-17 的成功发射进一步增强了北斗系统在全球范围内的竞争力,为交通运输、应急救援、农业、通信等多个领域提供可靠支持,标志着中国在卫星导航领域的持续发展和自主创新能力的提升。

基本信息
目录编号:
60395
目录名称:
QIANFAN-17
国际标识:
2024-140S
轨道中心:
EARTH
卫星名称:
千帆星座-17 (QIANFAN-17)
卫星全名:
千帆星座-17 (QIANFAN-17)
卫星状态:
在轨 (已飞行720 天)
发射日期:
2024-08-06 UTC
国别 :
中国 (CN)
星等 :
--
轨道信息
数据来源 国际轨道数据 AOE轨道数据
星历时间 2026-07-27T22:08:31+0800
8小时前
查看轨道信息
2026-07-25T22:00:00+0800
2天前
查看轨道信息
半长轴 7446.653km 7446.657km
偏心率 0.001266 0.0012532
轨道倾角 88.973° 88.973°
近地点辐角 269.171° 275.543°
升交点赤经 275.923° 276.131°
平近点角 90.799° 54.150°
近地点 1059.088km 1059.187km
远地点 1077.944km 1077.853km
周期 106.586分钟 106.586分钟
每日圈数 13.510179 13.510169
详细信息
运营商:
上海垣信卫星科技有限公司
运营商所在国:
中国
使用方式:
暂无
卫星简介
千帆星座,也被称为“G60星链”计划,是中国版“星链”的重要组成部分,旨在打造一个由1.4万多颗低轨宽频多媒体卫星构成的庞大星座。千帆星座计划由上海垣信卫星科技有限公司负责实施,于2023年启动建设。该项目是我国第二个低轨卫星大星座,旨在通过构建庞大的卫星网络,为全球用户提供高质量的通信和宽带互联网服务。
2D轨道图
3D轨道图
轨道高度分析图
轨道倾角分析图
轨道综合分析图
查看轨道综合分析图